ISS (ZARYA)
1 25544U 98067A 24112.71383648 .00034665 00000+0 59977-3 0 9993
2 25544 51.6401 235.4293 0004765 86.4592 61.5731 15.50596519449784


Ligne 0
Le nom commun de l'objetISS (ZARYA)
Ligne 1
Numéro de catalogue satellite25544U
Désignateur international98067A
Année de lancement98
Numéro de lancement dans l'année067
Object du lancementA
Époque (année)24
Époque (Jour de l'année en UTC)112.71383648
1ère dérivée du mouvement moyen .00034665
2ème dérivée du mouvement moyen 00000+0
B * Terme de glissement 59977-3
Type de jeu d'éléments0
Numéro d'élément 999
Ligne 2
Numéro de catalogue satellite25544
Inclinaison de l'orbite (degrés) 51.6401
Ascension droite du nœud ascendant (degrés)235.4293
Excentricité0004765
Argument du Périgée (degrés) 86.4592
Anomalie moyenne (degrés) 61.5731
Mouvement moyen (révolutions / jour)15.50596519
Numéro de révolution à l'époque44978
Valeurs déduites
Période Orbitale (en minutes)92.9 min.
Demi-grand axe (en kilomètres)6793.1 Km
Altitude à l‘Apogée (en kilomètres)425.4 Km
Altitude au Périgée (en kilomètres)418.9 Km

* Sources des TLE's : Celestrack